Wind_Speed
6 6 6 6 6 5 6 5 3 3 3 2 1 1 1 1 1 1 1 1 1 2 2 3 3 4 4 4 4 3 4 4 5 6 6 6 6 6 6 7 7 7 7
4 4 4 5 5 5 5 4 3 2 1 1 1 1 1 1 2 1 1 2 2 3 3 4 5 5 4 4 4 5 5 5 6 6 6 6 7 6 7 7 7 8 8
2 3 3 3 4 5 5 4 3 3 1 1 1 1 1 1 2 2 2 3 4 4 5 5 5 6 6 5 5 6 6 6 6 7 7 7 8 8 8 8 9 9 9
3 2 3 3 3 4 5 4 4 3 2 2 2 1 1 2 2 3 3 4 5 5 6 6 7 7 8 8 7 7 7 8 8 8 8 8 8 9 10 10 10 11 11
3 3 3 3 4 4 4 5 4 4 3 3 3 3 4 4 4 5 5 5 6 6 6 7 8 9 9 10 9 9 9 9 9 9 10 10 10 10 11 11 12 12 13
4 4 4 4 4 5 5 6 5 5 5 5 5 5 5 6 7 7 7 7 8 8 8 9 10 10 10 10 11 11 11 11 10 11 11 12 12 12 12 12 13 14 15
5 5 6 5 5 6 6 7 7 7 7 7 7 7 7 8 9 10 9 9 10 11 11 12 12 12 12 13 13 14 13 13 13 13 13 14 14 15 15 15 15 16 16
7 6 6 7 7 8 8 8 9 8 8 9 9 9 9 10 10 11 12 12 13 13 13 14 15 15 15 15 16 16 15 14 15 15 15 16 16 17 17 18 18 17 18
8 8 9 9 9 9 10 10 11 10 10 9 10 10 11 11 12 12 14 15 16 16 16 17 17 17 18 18 18 17 17 17 17 17 18 18 18 18 19 20 19 19 19
10 10 11 11 12 12 12 11 12 13 12 11 11 12 12 13 14 14 15 16 17 18 18 19 19 19 20 20 20 20 20 20 19 20 20 20 20 20 20 20 20 20 21
12 12 12 13 14 13 13 13 13 14 13 13 14 14 15 16 16 17 18 19 20 20 20 21 22 22 22 23 22 22 21 22 22 22 23 23 22 22 22 22 22 22 22
14 14 14 15 15 14 15 14 14 14 14 16 16 17 18 18 19 20 21 22 23 23 24 24 25 25 24 25 25 24 24 24 24 25 25 25 25 24 24 24 24 24 24
17 17 16 17 17 17 17 17 16 17 18 19 19 19 20 21 21 22 23 24 25 26 27 27 27 27 27 27 27 27 27 27 27 27 28 27 28 27 26 26 26 26 26
20 19 19 19 20 19 19 20 20 20 20 21 21 22 22 23 23 24 25 26 27 28 28 28 28 28 28 29 29 29 29 29 29 29 29 28 29 28 28 28 27 27 27
23 23 22 22 21 21 22 23 23 23 22 23 23 23 24 24 25 26 27 28 28 29 30 30 31 31 31 31 31 31 30 30 30 30 30 30 30 30 29 29 28 28 28
25 25 25 24 24 24 25 25 26 26 25 26 27 26 26 26 27 28 29 30 31 31 32 31 32 33 34 34 33 32 32 31 31 31 31 32 32 32 31 31 31 30 30
26 27 27 27 27 26 26 27 28 29 29 29 30 30 30 30 30 30 31 32 32 33 33 33 33 34 34 34 34 34 33 33 33 32 33 33 33 33 33 32 32 32 32
27 27 28 29 29 29 29 30 31 32 32 32 32 33 32 33 33 34 34 35 34 34 34 34 35 35 35 35 36 36 36 36 35 35 35 35 34 34 34 34 33 32 33
30 30 30 30 31 31 32 32 33 33 35 35 35 35 35 35 35 36 36 36 36 36 35 36 36 36 36 37 37 38 38 38 38 37 35 34 34 33 34 34 33 34 35
32 32 32 33 33 34 35 35 35 35 35 36 36 36 37 38 38 38 38 37 37 36 36 36 37 37 37 38 39 39 39 39 39 39 37 36 36 36 35 34 34 34 35
33 33 33 34 34 35 35 35 36 36 36 37 37 38 39 40 40 40 40 38 38 38 38 37 37 37 37 38 39 40 40 40 40 40 39 38 38 37 36 35 35 35 35
33 33 34 35 36 36 37 37 36 37 37 38 39 39 40 41 40 40 39 39 39 39 39 38 38 38 39 39 39 40 41 41 41 40 40 40 39 38 38 37 37 37 36
34 35 35 36 36 37 37 37 37 38 38 38 38 38 39 39 39 40 40 39 39 39 39 40 40 40 39 39 39 40 40 41 41 41 41 41 40 40 39 39 38 38 38
35 35 35 36 36 37 37 38 38 38 39 39 39 39 39 39 39 39 39 39 39 39 40 40 41 40 40 40 39 39 40 41 41 41 40 40 40 40 40 40 39 39 39
36 37 37 37 37 37 38 38 38 38 39 39 39 40 39 39 40 40 40 40 40 40 40 40 40 41 40 40 40 41 40 41 41 41 40 40 39 39 39 39 39 39 39
36 36 36 36 37 37 37 37 38 39 40 40 40 40 40 40 40 40 40 40 40 41 41 41 40 40 40 40 40 40 40 40 40 40 40 40 40 40 39 39 38 38 37
Wind_Direction
54 51 49 46 43 42 39 35 49 54 70 70 60 35 0 331 290 298 283 289 290 300 292 296 297 309 313 318 320 314 314 312 305 301 303 305 305 301 299 298 299 302 300
43 43 40 40 39 34 31 26 26 19 36 45 50 37 354 317 289 288 270 272 276 287 291 298 300 300 306 310 312 309 303 305 306 304 303 305 305 309 308 302 301 303 303
10 24 23 28 25 21 18 15 14 9 1 359 342 9 6 337 306 284 267 270 274 277 282 283 286 289 291 300 306 306 295 291 293 294 295 298 298 300 301 299 298 297 297
328 337 358 9 8 7 2 358 356 2 351 313 313 311 323 308 297 287 281 272 272 275 277 282 285 287 288 287 290 290 292 289 287 287 290 290 293 292 293 292 292 293 295
318 316 329 334 341 343 339 342 337 331 327 313 294 291 292 291 293 289 281 279 279 281 283 287 289 288 288 287 287 293 292 288 282 283 287 287 287 289 289 288 288 290 292
296 302 299 303 313 318 319 322 320 314 306 299 291 284 283 284 285 284 279 279 284 286 287 289 288 287 288 291 292 294 293 291 286 282 282 284 284 284 285 287 288 291 292
277 280 290 294 299 305 308 310 306 300 297 293 288 281 274 278 280 282 281 282 286 287 288 290 292 288 286 287 289 291 290 292 293 288 285 283 281 281 283 285 288 289 290
277 273 279 286 293 297 299 301 299 295 293 293 287 281 276 276 282 281 280 285 286 285 286 289 290 290 285 285 286 287 284 286 288 290 289 285 284 283 283 285 287 288 288
275 272 275 281 287 291 293 295 293 286 285 295 293 287 285 286 285 286 286 287 289 286 284 285 286 288 286 286 285 283 281 282 285 286 288 289 288 288 285 285 285 285 287
280 275 274 279 284 286 288 290 295 296 291 289 288 288 288 287 286 285 287 289 289 287 285 284 284 283 284 284 285 282 279 279 281 283 284 285 289 288 289 288 287 286 285
282 285 283 282 285 284 284 288 293 293 290 286 286 288 289 288 287 286 286 286 286 287 285 284 283 281 279 279 283 283 279 278 279 281 283 284 286 285 286 286 286 286 284
277 281 283 287 286 281 284 284 287 288 288 286 286 287 289 288 288 288 286 285 286 285 285 284 283 283 280 278 279 280 279 279 281 282 284 286 285 286 285 283 282 283 282
277 278 281 286 285 283 283 283 283 285 287 289 288 287 286 286 286 286 286 285 285 286 285 282 282 282 282 280 279 278 278 278 280 281 282 282 283 282 281 281 281 281 280
278 279 281 284 284 283 283 284 286 287 287 288 290 288 287 287 287 287 287 286 285 285 283 281 281 281 280 280 279 277 277 278 279 281 281 282 281 281 280 280 281 281 279
277 280 281 280 282 284 287 286 285 287 288 286 287 286 286 287 287 287 287 287 287 285 283 281 280 280 280 279 280 278 278 278 278 280 280 282 282 280 280 280 280 279 278
276 277 278 279 281 285 285 283 281 284 285 284 285 285 285 285 285 286 287 286 286 284 283 282 281 280 280 279 279 278 279 279 279 279 279 281 281 280 280 280 278 277 278
273 277 281 282 282 284 286 283 282 283 282 283 284 283 284 284 285 286 287 288 287 285 283 282 281 280 279 278 277 277 278 278 279 280 281 282 281 279 278 279 279 278 278
275 277 280 282 282 284 285 285 285 286 285 283 284 282 283 284 284 286 287 287 286 284 284 283 282 280 279 278 276 276 277 279 280 280 281 279 279 279 277 278 278 278 277
274 276 279 281 281 282 284 285 285 286 286 284 285 283 285 287 286 286 287 286 285 284 283 282 280 280 279 278 276 275 276 277 278 279 280 279 278 279 277 276 277 277 276
272 275 277 279 281 283 283 283 285 285 285 285 285 286 287 287 287 288 287 286 285 285 284 284 282 280 280 279 277 276 276 277 277 277 277 278 277 277 277 275 275 275 276
271 274 276 279 282 284 284 285 285 285 285 285 285 286 286 287 287 287 286 286 286 286 285 284 284 283 283 282 280 278 277 276 276 275 275 275 275 276 275 275 274 275 275
273 274 276 279 282 284 285 284 284 284 285 286 286 286 287 288 288 288 288 287 286 286 284 284 285 285 284 283 281 279 277 276 275 275 274 274 274 274 274 274 274 274 274
275 276 277 279 282 284 285 285 285 285 286 286 288 289 289 290 290 290 289 288 287 286 285 284 284 283 283 282 281 279 278 277 275 274 273 272 272 272 273 273 273 273 272
276 277 279 280 282 283 284 285 286 286 286 287 289 290 291 291 291 291 291 290 289 288 287 284 283 282 282 282 281 280 279 278 276 274 273 272 271 271 271 271 271 271 271
278 278 279 280 281 282 283 284 285 286 286 289 289 290 292 292 293 293 292 291 289 288 287 286 284 282 280 281 281 280 279 279 278 275 272 271 271 271 270 270 270 270 270
278 279 280 280 282 283 283 284 286 288 289 289 290 291 292 293 293 292 291 290 289 288 288 287 286 284 282 281 280 279 278 277 276 275 273 271 271 269 269 269 269 268 268
Height
5912 5911 5910 5910 5909 5908 5907 5907 5906 5906 5906 5905 5905 5905 5905 5905 5905 5905 5905 5905 5905 5905 5905 5905 5905 5905 5904 5904 5903 5903 5902 5902 5901 5901 5901 5901 5900 5899 5899 5898 5898 5897 5897
5912 5911 5910 5910 5909 5908 5908 5907 5907 5906 5906 5906 5905 5905 5905 5905 5905 5905 5905 5905 5904 5904 5904 5904 5904 5904 5904 5903 5902 5902 5901 5900 5900 5900 5899 5899 5899 5898 5897 5896 5896 5896 5895
5912 5911 5910 5910 5909 5908 5908 5907 5907 5906 5905 5906 5905 5905 5905 5905 5905 5905 5904 5904 5904 5904 5903 5903 5903 5903 5902 5902 5901 5900 5899 5899 5898 5898 5897 5896 5896 5895 5895 5894 5894 5893 5893
5911 5910 5910 5909 5909 5908 5908 5907 5907 5906 5905 5905 5905 5905 5905 5904 5904 5904 5904 5904 5903 5903 5902 5902 5902 5901 5901 5900 5899 5898 5897 5897 5896 5896 5895 5894 5893 5893 5893 5892 5892 5891 5890
5911 5910 5909 5909 5908 5908 5907 5907 5906 5906 5905 5905 5905 5904 5904 5904 5904 5903 5903 5902 5902 5901 5901 5900 5900 5900 5899 5898 5897 5896 5895 5894 5894 5893 5893 5892 5891 5891 5890 5890 5889 5888 5887
5910 5909 5909 5908 5907 5907 5906 5906 5906 5905 5904 5904 5903 5903 5903 5903 5903 5902 5901 5901 5900 5900 5899 5899 5898 5897 5897 5896 5895 5894 5893 5892 5891 5890 5890 5889 5889 5888 5887 5887 5886 5885 5884
5908 5908 5907 5907 5907 5906 5905 5905 5904 5903 5903 5902 5902 5901 5901 5901 5901 5900 5900 5899 5898 5898 5897 5896 5896 5895 5894 5893 5892 5891 5890 5889 5888 5887 5887 5886 5885 5885 5884 5883 5882 5881 5880
5906 5906 5906 5905 5905 5904 5903 5903 5902 5901 5901 5900 5899 5899 5899 5898 5898 5898 5897 5896 5896 5895 5894 5894 5893 5892 5891 5890 5889 5888 5887 5886 5885 5884 5883 5882 5882 5881 5880 5879 5878 5877 5876
5904 5904 5903 5903 5903 5902 5901 5900 5899 5899 5898 5898 5897 5896 5896 5896 5895 5895 5894 5893 5892 5892 5891 5890 5889 5888 5887 5886 5885 5884 5883 5882 5881 5880 5879 5878 5877 5876 5875 5874 5873 5873 5872
5902 5901 5901 5900 5900 5899 5898 5897 5897 5896 5895 5894 5894 5893 5893 5892 5891 5891 5890 5889 5889 5888 5887 5886 5885 5883 5882 5882 5881 5880 5878 5878 5877 5876 5874 5873 5872 5871 5870 5869 5868 5867 5867
5899 5898 5897 5897 5896 5895 5895 5894 5893 5892 5892 5891 5890 5890 5889 5888 5887 5887 5886 5885 5884 5883 5882 5881 5880 5878 5877 5876 5875 5874 5873 5872 5871 5870 5869 5868 5867 5866 5865 5863 5862 5861 5861
5895 5895 5894 5893 5892 5892 5891 5890 5889 5888 5888 5887 5886 5885 5884 5883 5883 5882 5881 5880 5879 5878 5876 5875 5874 5873 5872 5871 5870 5869 5868 5866 5865 5864 5863 5862 5861 5859 5858 5857 5856 5855 5854
5891 5890 5890 5889 5888 5887 5886 5885 5885 5884 5883 5882 5881 5880 5879 5878 5877 5876 5875 5874 5873 5871 5870 5869 5868 5867 5865 5864 5863 5862 5861 5860 5859 5858 5856 5855 5854 5852 5851 5850 5848 5847 5847
5886 5885 5885 5884 5883 5882 5881 5880 5879 5879 5878 5877 5876 5875 5874 5872 5871 5870 5868 5867 5866 5864 5863 5862 5861 5859 5858 5857 5856 5855 5854 5853 5852 5851 5849 5848 5847 5845 5844 5843 5842 5840 5839
5880 5879 5879 5878 5877 5876 5876 5875 5874 5873 5872 5871 5870 5869 5867 5866 5864 5863 5861 5860 5858 5857 5855 5854 5853 5852 5850 5850 5849 5847 5847 5846 5845 5843 5842 5840 5839 5838 5836 5835 5834 5833 5832
5873 5873 5872 5872 5871 5870 5870 5869 5868 5866 5866 5865 5863 5861 5860 5858 5857 5855 5853 5852 5850 5848 5847 5846 5845 5843 5842 5841 5840 5839 5838 5837 5836 5835 5834 5832 5831 5830 5829 5827 5826 5825 5824
5867 5866 5865 5865 5864 5864 5863 5861 5860 5859 5858 5856 5855 5853 5852 5850 5848 5847 5845 5843 5842 5840 5838 5837 5835 5834 5833 5832 5831 5830 5829 5828 5827 5826 5825 5823 5822 5821 5820 5818 5817 5816 5816
5859 5858 5858 5857 5856 5855 5854 5853 5851 5850 5849 5847 5846 5844 5843 5841 5839 5837 5835 5834 5832 5830 5828 5827 5826 5824 5823 5822 5821 5820 5820 5819 5818 5817 5815 5814 5813 5812 5811 5810 5809 5808 5807
5851 5850 5849 5848 5848 5846 5845 5844 5842 5841 5839 5837 5835 5834 5833 5831 5829 5827 5825 5823 5822 5820 5818 5817 5815 5814 5813 5811 5810 5810 5809 5808 5807 5807 5805 5804 5803 5802 5801 5801 5800 5799 5798
5842 5841 5841 5840 5838 5837 5836 5834 5832 5830 5829 5827 5826 5824 5822 5820 5818 5816 5815 5813 5811 5809 5807 5806 5805 5803 5802 5800 5799 5798 5797 5797 5797 5796 5795 5794 5793 5792 5791 5790 5790 5789 5789
5832 5831 5831 5830 5828 5827 5825 5824 5822 5820 5818 5817 5815 5813 5811 5809 5807 5805 5803 5801 5800 5798 5797 5795 5793 5792 5790 5789 5787 5786 5785 5785 5785 5784 5784 5783 5782 5781 5780 5780 5779 5779 5778
5822 5822 5821 5819 5818 5816 5815 5813 5812 5810 5808 5806 5804 5802 5800 5797 5795 5793 5791 5790 5788 5786 5785 5783 5782 5780 5779 5777 5776 5775 5774 5773 5773 5773 5772 5771 5770 5769 5769 5769 5768 5768 5767
5813 5812 5810 5809 5808 5806 5804 5803 5801 5799 5797 5795 5792 5790 5788 5785 5783 5781 5779 5777 5776 5774 5773 5771 5770 5768 5767 5765 5764 5763 5762 5761 5760 5760 5759 5759 5758 5757 5757 5757 5757 5756 5756
5802 5801 5800 5799 5797 5796 5794 5792 5790 5788 5786 5784 5781 5779 5776 5774 5772 5770 5767 5765 5763 5761 5760 5759 5757 5756 5755 5753 5752 5751 5750 5748 5747 5747 5746 5745 5745 5745 5745 5745 5744 5744 5745
5792 5790 5789 5788 5787 5785 5783 5781 5779 5777 5775 5773 5770 5768 5765 5762 5759 5757 5755 5753 5751 5749 5747 5746 5744 5743 5742 5741 5739 5737 5737 5735 5734 5733 5733 5733 5733 5733 5733 5733 5733 5733 5733
5781 5779 5778 5777 5776 5774 5772 5770 5768 5766 5764 5762 5759 5756 5754 5751 5748 5745 5743 5740 5738 5736 5734 5732 5731 5729 5728 5727 5726 5724 5723 5722 5721 5720 5720 5720 5720 5721 5721 5721 5721 5721 5721